Location: Recife
(8.0585°S, 34.8848°W)
Time: 11:57:43
(UTC-03:00)

Vanguard 1 - Pass Details

Date: 15 April 2026
Orbit: 654 x 3817 km, 34.3° (Epoch: 11 May)

Event Time Altitude Azimuth Distance (km) Brightness Sun altitude
Rises 21:06:05 0° 258° (WSW) 6,454 14.7 -57.0°
Reaches altitude 10° 21:10:28 10° 267° (W) 5,822 14.3 -58.1°
Maximum altitude 21:27:27 36° 326° (NW) 4,914 13.5 -62.3°
Enters shadow 21:37:40 27° 4° (N) 5,578 13.7 -64.8°
Exits shadow 21:48:30 - 27° (NNE) 6,833 14.2 -67.5°
Sets 21:53:25 0° 34° (NE) 7,492 14.5 -68.7°
